This demonstration page uses our WeatherBlox Daily Observations layout. Learn more.

Left ArrowRight Arrow

47.50024, -111.30081

Hourly Observations for May 16, 2022

Temp ( °F °C ) Dew Point ( °F °C ) Humidity (%) Winds ( mph kmh ) Pressure ( in mb ) Visibility ( mi km ) Precip ( " mm )
12:53 am 00:53 Mostly Cloudy 54 12.2 38 3.3 55 55 Calm 29.85 1011 10 16 0.00 0.00
1:53 am 01:53 Cloudy with Light Rain 50 10 43 6.1 77 77 W 6 9 29.91 1013 10 16 0.02 0.51
2:53 am 02:53 Cloudy with Light Rain 49 9.4 44 6.7 83 83 WSW 10 17 29.93 1013 10 16 0.01 0.25
3:53 am 03:53 Partly Cloudy 49 9.4 46 7.8 90 90 SSW 7 11 29.91 1013 10 16 0.01 0.25
4:53 am 04:53 Clear 47 8.3 44 6.7 90 90 SSW 12 19 29.91 1013 10 16 0.00 0.00
5:53 am 05:53 Sunny 47 8.3 44 6.7 90 90 SSW 9 15 29.90 1012 10 16 0.00 0.00
6:53 am 06:53 Sunny 52 11.1 47 8.3 83 83 SSW 16 26 29.89 1012 10 16 0.00 0.00
7:53 am 07:53 Sunny 54 12.2 48 8.9 80 80 SW 12 19 29.89 1012 10 16 0.00 0.00
8:53 am 08:53 Sunny 59 15 47 8.3 64 64 WSW 14 22 29.89 1012 10 16 0.00 0.00
9:53 am 09:53 Sunny 64 17.8 45 7.2 50 50 WSW 17 28 29.88 1012 10 16 0.00 0.00
10:53 am 10:53 Sunny 68 20 40 4.4 36 36 W 17 28 29.87 1011 10 16 0.00 0.00
11:53 am 11:53 Mostly Cloudy 67 19.4 39 3.9 36 36 W 18 30 29.86 1011 10 16 0.00 0.00
12:53 pm 12:53 Partly Cloudy 69 20.6 39 3.9 33 33 W 16 26 29.84 1011 10 16 0.00 0.00
1:53 pm 13:53 Mostly Cloudy 70 21.1 38 3.3 31 31 W 14 22 29.84 1010 10 16 0.00 0.00
2:53 pm 14:53 Partly Cloudy 74 23.3 35 1.7 24 24 WSW 15 24 29.81 1009 10 16 0.00 0.00
3:53 pm 15:53 Mostly Sunny 71 21.7 35 1.7 27 27 WNW 15 24 29.80 1009 10 16 0.00 0.00
4:53 pm 16:53 Mostly Sunny 71 21.7 37 2.8 29 29 NW 20 31 29.81 1010 10 16 0.00 0.00
5:53 pm 17:53 Sunny 70 21.1 36 2.2 29 29 NW 14 22 29.81 1010 10 16 0.00 0.00
6:53 pm 18:53 Sunny 67 19.4 35 1.7 31 31 NNW 12 19 29.80 1009 10 16 0.00 0.00
7:53 pm 19:53 Sunny 63 17.2 39 3.9 41 41 N 5 7 29.82 1010 10 16 0.00 0.00
8:53 pm 20:53 Mostly Sunny 59 15 37 2.8 44 44 N 3 6 29.84 1010 10 16 0.00 0.00
9:53 pm 21:53 Mostly Clear 58 14.4 37 2.8 46 46 ESE 3 6 29.84 1011 10 16 0.00 0.00
10:53 pm 22:53 Mostly Clear 52 11.1 37 2.8 57 57 W 8 13 29.86 1011 10 16 0.00 0.00
11:53 pm 23:53 Clear 51 10.6 37 2.8 59 59 W 10 17 29.88 1012 10 16 0.00 0.00

Powered by AerisWeather